1484784001.17,18228,6.25,73920.0,-17.61,-48.35,-48.55,0,*66
1484784002.42,18229,6.25,73922.5,-17.61,-48.77,-48.83,0,*6A
1484784003.69,18230,6.25,73918.8,-17.61,-48.77,-48.77,0,*69
1484784004.94,18231,6.25,73920.0,-17.61,-48.77,-48.83,0,*63
1484784006.17,18232,6.25,73920.0,-17.61,-48.83,-48.91,0,*68
1484784007.42,18233,6.25,73926.0,-17.61,-48.13,-48.41,0,*6D
1484784008.64,18234,6.25,73920.8,-17.57,-47.99,-48.21,0,*64
1484784009.86,18235,6.25,73920.8,-17.61,-47.99,-48.21,0,*60
1484784011.11,18236,6.25,73920.8,-17.57,-48.07,-48.35,0,*6B
1484784012.34,18237,6.25,73922.8,-17.57,-48.27,-48.49,0,*63
1484784013.58,18238,6.25,73922.5,-17.57,-48.27,-48.49,0,*6C
1484784014.82,18239,6.25,73920.3,-17.57,-48.55,-48.77,0,*65
1484784016.07,18240,6.25,73924.3,-17.57,-48.49,-48.69,0,*69
1484784017.31,18241,6.25,73926.3,-17.57,-48.49,-48.77,0,*67
1484784018.55,18242,6.25,73920.0,-17.57,-48.55,-48.77,0,*69
1484784019.83,18243,6.25,73920.0,-17.61,-48.91,-49.11,0,*64
1484784021.05,18244,6.25,73920.8,-17.61,-48.55,-48.83,0,*61
1484784022.28,18245,6.25,73922.0,-17.57,-48.35,-48.49,0,*65
1484784023.52,18246,6.25,73916.8,-17.57,-48.35,-48.55,0,*6B
1484784024.75,18247,6.25,73920.5,-17.61,-48.49,-48.55,0,*64
1484784025.99,18248,6.25,73922.5,-17.61,-48.49,-48.69,0,*64
1484784027.24,18249,6.25,73918.0,-17.57,-48.07,-48.35,0,*63
1484784028.48,18250,6.25,73920.8,-17.57,-48.13,-48.49,0,*65
1484784029.73,18251,6.25,73922.3,-17.61,-48.55,-48.77,0,*6E
1484784030.97,18252,6.25,73926.0,-17.57,-48.77,-48.83,0,*63
1484784032.22,18253,6.25,73924.8,-17.57,-48.69,-48.83,0,*6D
1484784033.49,18254,6.25,73920.8,-17.61,-48.77,-48.91,0,*63
1484784034.7,18255,6.25,73920.3,-17.57,-48.55,-48.83,0,*64
1484784035.92,18256,6.25,73920.5,-17.61,-48.55,-48.83,0,*62
1484784037.18,18257,6.25,73920.8,-17.57,-48.35,-48.69,0,*64
1484784038.46,18258,6.25,73920.5,-17.57,-48.69,-48.77,0,*6D
1484784039.68,18259,6.25,73920.0,-17.57,-48.55,-48.83,0,*68
1484784040.88,18260,6.25,73920.3,-17.57,-48.83,-48.97,0,*6C
1484784042.13,18261,6.25,73922.5,-17.57,-48.55,-48.77,0,*68
1484784043.35,18262,6.25,73920.0,-17.57,-48.55,-48.83,0,*60
1484784044.61,18263,6.25,73926.5,-17.57,-48.77,-49.19,0,*63
1484784045.85,18264,6.25,73920.0,-17.61,-48.83,-48.91,0,*6B
1484784047.12,18265,6.25,73920.5,-17.61,-48.91,-49.11,0,*60
1484784048.34,18266,6.25,73920.3,-17.61,-48.55,-48.83,0,*61
1484784049.57,18267,6.25,73922.5,-17.61,-48.21,-48.55,0,*68
1484784050.81,18268,6.25,73918.8,-17.57,-48.27,-48.55,0,*64
1484784052.03,18269,6.25,73922.5,-17.57,-48.41,-48.63,0,*60
1484784053.3,18270,6.25,73924.5,-17.61,-48.77,-48.91,0,*65
1484784054.57,18271,6.25,73920.0,-17.61,-48.77,-48.77,0,*6C
1484784055.81,18272,6.25,73924.3,-17.61,-48.63,-48.91,0,*62
1484784057.09,18273,6.25,73924.0,-17.57,-48.77,-48.77,0,*6B
1484784058.35,18274,6.25,73920.3,-17.61,-48.77,-48.91,0,*61
1484784059.6,18275,6.25,73920.5,-17.61,-48.55,-48.69,0,*67
1484784060.82,18276,6.25,73920.5,-17.61,-48.63,-48.83,0,*65
1484784062.07,18277,6.25,73920.0,-17.61,-49.05,-49.11,0,*6F
1484784063.28,18278,6.25,73920.0,-17.61,-48.83,-48.83,0,*65
1484784064.56,18279,6.25,73926.3,-17.63,-48.13,-48.41,0,*61
1484784065.8,18280,6.25,73922.5,-17.63,-48.41,-48.63,0,*60
1484784067.05,18281,6.25,73922.3,-17.61,-48.63,-48.77,0,*66
1484784068.29,18282,6.25,73926.0,-17.61,-48.41,-48.77,0,*65
1484784069.54,18283,6.25,73924.5,-17.61,-48.55,-48.77,0,*61
1484784070.78,18284,6.25,73922.3,-17.61,-48.35,-48.63,0,*65
1484784072.03,18285,6.25,73926.0,-17.61,-48.55,-48.69,0,*68
1484784073.26,18286,6.25,73922.8,-17.61,-48.83,-48.91,0,*67
1484784074.51,18287,6.25,73922.3,-17.57,-48.55,-48.69,0,*6F
1484784075.76,18288,6.25,73922.0,-17.61,-48.77,-48.83,0,*61
1484784076.98,18289,6.25,73920.5,-17.61,-48.41,-48.63,0,*6B
1484784078.22,18290,6.25,73924.5,-17.57,-48.55,-48.77,0,*66
1484784079.47,18291,6.25,73920.3,-17.61,-48.55,-48.77,0,*62
1484784080.71,18292,6.25,73920.8,-17.61,-48.55,-48.77,0,*61
1484784081.96,18293,6.25,73924.3,-17.61,-48.55,-48.77,0,*60
1484784083.18,18294,6.25,73920.5,-17.61,-48.41,-48.63,0,*67
1484784084.4,18295,6.25,73920.5,-17.61,-48.63,-48.83,0,*68
1484784085.65,18296,6.25,73922.8,-17.61,-48.77,-48.83,0,*6E
1484784086.86,18297,6.25,73920.5,-17.61,-48.83,-49.05,0,*6B
1484784088.1,18298,6.25,73922.0,-17.61,-48.83,-48.91,0,*68
1484784089.34,18299,6.25,73922.8,-17.61,-48.83,-48.91,0,*69
1484784090.56,18300,6.25,73920.8,-17.61,-48.55,-48.83,0,*60
1484784091.8,18301,6.25,73926.5,-17.61,-48.83,-48.91,0,*69
1484784093.04,18302,6.25,73920.5,-17.63,-48.83,-49.05,0,*64
1484784094.29,18303,6.25,73920.3,-17.61,-49.05,-49.11,0,*6D
1484784095.53,18304,6.25,73922.0,-17.63,-48.83,-49.05,0,*62
1484784096.8,18305,6.25,73922.8,-17.63,-48.77,-49.05,0,*68
1484784098.04,18306,6.25,73920.5,-17.63,-49.05,-49.25,0,*6D
1484784099.3,18307,6.25,73920.8,-17.63,-48.83,-48.91,0,*6D
1484784100.59,18308,6.25,73922.8,-17.63,-48.91,-48.91,0,*61
1484784101.86,18309,6.25,73922.5,-17.63,-48.35,-48.55,0,*66
1484784103.11,18310,6.25,73922.8,-17.63,-48.21,-48.55,0,*6B
1484784104.41,18311,6.25,73922.0,-17.63,-48.13,-48.35,0,*6D
1484784105.65,18312,6.25,73920.5,-17.63,-48.63,-48.83,0,*64
1484784106.92,18313,6.25,73924.0,-17.63,-48.77,-48.83,0,*60
1484784108.19,18314,6.25,73924.8,-17.63,-48.55,-48.77,0,*6C
1484784109.46,18315,6.25,73924.3,-17.63,-48.63,-48.77,0,*68
1484784110.76,18316,6.25,73926.0,-17.63,-48.13,-48.35,0,*6A
1484784112.01,18317,6.25,73922.3,-17.63,-47.99,-48.21,0,*63
1484784113.25,18318,6.25,73920.0,-17.63,-48.21,-48.41,0,*66
1484784114.5,18319,6.25,73924.8,-17.63,-48.41,-48.63,0,*61
1484784115.75,18320,6.25,73924.5,-17.61,-48.21,-48.35,0,*6C
1484784116.99,18321,6.25,73924.5,-17.63,-48.41,-48.63,0,*6A
1484784118.23,18322,6.25,73922.8,-17.61,-48.83,-48.91,0,*68
1484784119.49,18323,6.25,73924.3,-17.63,-48.83,-48.91,0,*6B
1484784120.76,18324,6.25,73920.5,-17.63,-48.55,-48.77,0,*6F
1484784122.01,18325,6.25,73922.8,-17.63,-48.41,-48.63,0,*6E
1484784123.25,18326,6.25,73924.0,-17.63,-48.21,-48.41,0,*6B
1484784124.5,18327,6.25,73920.3,-17.63,-48.41,-48.63,0,*6C
1484784125.76,18328,6.25,73924.3,-17.63,-48.83,-48.91,0,*60
1484784127.03,18329,6.25,73920.8,-17.63,-48.77,-48.83,0,*69
1484784128.3,18330,6.25,73918.5,-17.63,-48.63,-48.77,0,*6F
1484784129.55,18331,6.25,73920.8,-17.63,-48.41,-48.63,0,*6B
1484784130.8,18332,6.25,73924.8,-17.63,-48.21,-48.55,0,*6B
1484784132.08,18333,6.25,73926.0,-17.63,-48.13,-48.55,0,*6B
1484784133.35,18334,6.25,73924.5,-17.63,-48.41,-48.77,0,*6B
1484784134.61,18335,6.25,73922.5,-17.63,-48.83,-48.91,0,*6C
1484784135.85,18336,6.25,73922.5,-17.63,-48.83,-49.05,0,*63
1484784137.15,18337,6.25,73924.8,-17.63,-48.91,-49.11,0,*64
1484784138.44,18338,6.25,73922.0,-17.63,-48.77,-48.91,0,*6A
1484784139.71,18339,6.25,73924.3,-17.63,-48.55,-48.77,0,*63
1484784140.98,18340,6.25,73920.8,-17.63,-48.41,-48.77,0,*68
1484784142.25,18341,6.25,73924.0,-17.63,-48.55,-48.91,0,*64
1484784143.49,18342,6.25,73926.0,-17.63,-48.83,-49.05,0,*60
1484784144.75,18343,6.25,73926.3,-17.63,-48.83,-49.11,0,*64
1484784146.0,18344,6.25,73922.3,-17.63,-48.83,-49.05,0,*66
1484784147.26,18345,6.25,73926.0,-17.63,-48.83,-48.91,0,*6B
1484784148.53,18346,6.25,73922.5,-17.63,-48.13,-48.41,0,*6C
1484784149.78,18347,6.25,73926.3,-17.63,-48.41,-48.63,0,*6A
1484784151.02,18348,6.25,73924.3,-17.63,-48.63,-48.63,0,*65
1484784152.32,18349,6.25,73920.3,-17.63,-48.91,-49.11,0,*6D
1484784153.59,18350,6.25,73926.8,-17.63,-48.77,-49.05,0,*68
1484784154.86,18351,6.25,73926.0,-17.63,-48.83,-49.11,0,*67
1484784156.13,18352,6.25,73924.5,-17.63,-49.05,-49.11,0,*6B
1484784157.4,18353,6.25,73920.5,-17.65,-49.11,-49.19,0,*61
1484784158.64,18354,6.25,73922.5,-17.65,-48.91,-48.97,0,*68
1484784159.88,18355,6.25,73922.5,-17.65,-48.83,-49.11,0,*65
1484784161.12,18356,6.25,73930.5,-17.67,-48.83,-48.97,0,*6B
1484784162.42,18357,6.25,73922.5,-17.67,-48.91,-49.11,0,*66
1484784163.63,18358,6.25,73926.5,-17.65,-48.97,-48.97,0,*62
1484784164.9,18359,6.25,73924.5,-17.65,-48.91,-49.11,0,*6A
1484784166.15,18360,6.25,73922.8,-17.65,-49.11,-49.33,0,*69
1484784167.42,18361,6.25,73924.8,-17.65,-49.11,-49.19,0,*60
1484784168.69,18362,6.25,73926.8,-17.67,-48.83,-49.11,0,*63
1484784169.96,18363,6.25,73926.5,-17.67,-48.97,-49.19,0,*6F
1484784171.17,18364,6.25,73924.5,-17.65,-48.97,-48.97,0,*6D
1484784172.42,18365,6.25,73926.0,-17.67,-48.63,-48.63,0,*6E
1484784173.65,18366,6.25,73924.0,-17.65,-48.21,-48.63,0,*69
1484784174.92,18367,6.25,73922.3,-17.67,-48.49,-48.69,0,*6E
1484784176.16,18368,6.25,73922.0,-17.65,-48.63,-48.91,0,*6C
1484784177.41,18369,6.25,73926.3,-17.67,-48.49,-48.83,0,*64
1484784178.65,18370,6.25,73928.8,-17.67,-48.41,-48.83,0,*64
1484784179.93,18371,6.25,73924.8,-17.65,-48.69,-48.91,0,*6E
1484784181.2,18372,6.25,73922.0,-17.67,-48.97,-49.11,0,*67
1484784182.44,18373,6.25,73920.0,-17.67,-48.83,-48.97,0,*6C
1484784183.68,18374,6.25,73922.3,-17.67,-48.63,-48.83,0,*60
1484784184.93,18375,6.25,73924.3,-17.65,-48.69,-48.83,0,*69
1484784186.23,18376,6.25,73924.5,-17.67,-48.69,-48.91,0,*6B
1484784187.5,18377,6.25,73924.3,-17.71,-49.05,-49.19,0,*67
1484784188.8,18378,6.25,73924.8,-17.71,-48.69,-48.91,0,*62
1484784190.1,18379,6.25,73926.3,-17.67,-48.69,-48.69,0,*63
1484784191.37,18380,6.25,73926.5,-17.71,-48.77,-48.97,0,*6C
1484784192.64,18381,6.25,73926.5,-17.67,-48.69,-48.97,0,*65
1484784193.89,18382,6.25,73926.3,-17.71,-48.97,-49.05,0,*6A
1484784195.19,18383,6.25,73926.5,-17.71,-48.69,-48.91,0,*66
1484784196.48,18384,6.25,73924.3,-17.71,-48.77,-48.91,0,*6E
1484784197.75,18385,6.25,73924.3,-17.71,-48.77,-48.97,0,*69
1484784199.02,18386,6.25,73926.8,-17.71,-48.55,-48.91,0,*6C
1484784200.31,18387,6.25,73926.5,-17.71,-48.77,-48.91,0,*6D
1484784201.59,18388,6.25,73926.5,-17.71,-48.55,-48.77,0,*6A
1484784202.86,18389,6.25,73924.3,-17.67,-48.41,-48.69,0,*66
1484784204.13,18390,6.25,73922.3,-17.73,-48.35,-48.69,0,*68
1484784205.38,18391,6.25,73928.3,-17.67,-48.21,-48.63,0,*63
1484784206.63,18392,6.25,73926.3,-17.67,-48.07,-48.21,0,*62
1484784207.9,18393,6.25,73926.0,-17.71,-48.13,-48.49,0,*6F
1484784209.15,18394,6.25,73926.3,-17.67,-48.07,-48.41,0,*62
1484784210.45,18395,6.25,73924.3,-17.71,-48.35,-48.69,0,*6F
1484784211.72,18396,6.25,73930.8,-17.67,-48.49,-48.69,0,*60
1484784212.97,18397,6.25,73926.8,-17.67,-48.49,-48.83,0,*65
1484784214.27,18398,6.25,73926.3,-17.71,-48.69,-48.91,0,*6C
1484784215.54,18399,6.25,73924.0,-17.71,-48.91,-49.05,0,*66
1484784216.83,18400,6.25,73924.8,-17.71,-48.77,-48.91,0,*65
1484784218.11,18401,6.25,73926.0,-17.67,-48.49,-48.69,0,*69
1484784219.41,18402,6.25,73924.5,-17.71,-48.77,-48.77,0,*6F
1484784220.71,18403,6.25,73926.5,-17.71,-48.69,-48.77,0,*61
1484784222.01,18404,6.25,73924.3,-17.71,-48.69,-48.77,0,*66
1484784223.28,18405,6.25,73924.3,-17.71,-48.77,-48.97,0,*66
1484784224.57,18406,6.25,73924.8,-17.71,-48.35,-48.69,0,*62
1484784225.82,18407,6.25,73924.8,-17.73,-48.55,-48.77,0,*68
1484784227.09,18408,6.25,73926.5,-17.71,-48.49,-48.77,0,*68
1484784228.37,18409,6.25,73926.3,-17.71,-48.49,-48.69,0,*66
1484784229.66,18410,6.25,73924.8,-17.71,-48.35,-48.69,0,*65
1484784230.93,18411,6.25,73924.3,-17.71,-48.49,-48.77,0,*60
1484784232.18,18412,6.25,73926.3,-17.73,-48.55,-48.77,0,*6C
1484784233.45,18413,6.25,73924.0,-17.71,-48.91,-48.97,0,*69
1484784234.71,18414,6.25,73926.0,-17.73,-48.91,-48.91,0,*6A
1484784235.98,18415,6.25,73926.5,-17.73,-48.77,-48.91,0,*63
1484784237.28,18416,6.25,73924.3,-17.71,-48.69,-48.91,0,*6D
1484784238.58,18417,6.25,73926.0,-17.71,-48.69,-48.91,0,*6C
1484784239.85,18418,6.25,73926.5,-17.71,-48.55,-48.91,0,*6C
1484784241.14,18419,6.25,73928.3,-17.71,-48.91,-49.19,0,*64
1484784242.41,18420,6.25,73922.8,-17.71,-48.69,-48.97,0,*6E
1484784243.68,18421,6.25,73924.8,-17.71,-48.55,-48.77,0,*6E
1484784244.95,18422,6.25,73922.5,-17.73,-48.77,-48.91,0,*67
1484784246.22,18423,6.25,73926.5,-17.71,-48.91,-48.97,0,*6A
1484784247.48,18424,6.25,73926.5,-17.71,-48.97,-49.19,0,*6C
1484784248.7,18425,6.25,73926.3,-17.73,-48.97,-49.05,0,*62
1484784249.92,18426,6.25,73922.8,-17.73,-48.97,-49.05,0,*61
1484784251.19,18427,6.25,73924.3,-17.73,-48.77,-48.91,0,*62
1484784252.46,18428,6.25,73924.5,-17.75,-48.27,-48.49,0,*6B
1484784253.74,18429,6.25,73926.3,-17.75,-48.07,-48.27,0,*60
1484784255.02,18430,6.25,73926.8,-17.75,-48.55,-48.69,0,*65
1484784256.26,18431,6.25,73928.8,-17.73,-48.35,-48.55,0,*6B
1484784257.51,18432,6.25,73924.3,-17.73,-48.27,-48.55,0,*6B
1484784258.76,18433,6.25,73924.3,-17.73,-48.55,-48.77,0,*6F
1484784260.03,18434,6.25,73928.5,-17.73,-48.35,-48.77,0,*6E
1484784261.29,18435,6.25,73924.3,-17.75,-48.91,-48.97,0,*69
1484784262.56,18436,6.25,73926.3,-17.75,-48.91,-48.97,0,*6A
1484784263.86,18437,6.25,73924.0,-17.75,-48.77,-48.91,0,*65
1484784265.16,18438,6.25,73926.5,-17.75,-48.77,-49.19,0,*6B
1484784266.47,18439,6.25,73928.5,-17.75,-48.69,-48.77,0,*6C
1484784267.71,18440,6.25,73924.5,-17.73,-48.49,-48.69,0,*69
1484784268.99,18441,6.25,73926.0,-17.75,-48.55,-48.77,0,*6C
1484784270.26,18442,6.25,73928.8,-17.73,-48.35,-48.77,0,*6F
1484784271.56,18443,6.25,73922.5,-17.75,-48.27,-48.35,0,*6D
1484784272.81,18444,6.25,73922.8,-17.75,-48.55,-48.55,0,*69
1484784274.06,18445,6.25,73922.8,-17.73,-48.55,-48.77,0,*6E
1484784275.33,18446,6.25,73930.8,-17.73,-48.69,-48.91,0,*6A
1484784276.64,18447,6.25,73924.8,-17.75,-48.69,-48.77,0,*65
1484784277.92,18448,6.25,73926.8,-17.75,-48.55,-48.77,0,*65
1484784279.19,18449,6.25,73924.0,-17.75,-48.77,-48.97,0,*6A
1484784280.4,18450,6.25,73928.0,-17.77,-48.83,-48.97,0,*6B
1484784281.64,18451,6.25,73924.5,-17.77,-48.83,-48.91,0,*6C
1484784282.93,18452,6.25,73926.0,-17.75,-48.77,-48.91,0,*66
1484784284.21,18453,6.25,73926.0,-17.75,-48.69,-48.97,0,*6E
1484784285.51,18454,6.25,73922.8,-17.75,-48.35,-48.77,0,*6E
1484784286.8,18455,6.25,73926.0,-17.75,-48.35,-48.69,0,*60
1484784288.1,18456,6.25,73930.8,-17.75,-48.35,-48.77,0,*6C
1484784289.38,18457,6.25,73926.8,-17.75,-48.49,-48.69,0,*69
1484784290.65,18458,6.25,73924.0,-17.75,-48.49,-48.69,0,*66
1484784291.96,18459,6.25,73926.5,-17.75,-48.69,-48.77,0,*6A
1484784293.26,18460,6.25,73924.3,-17.75,-48.35,-48.69,0,*66
1484784294.56,18461,6.25,73924.5,-17.75,-48.13,-48.35,0,*6A
1484784295.86,18462,6.25,73924.0,-17.75,-48.35,-48.77,0,*6B
1484784297.1,18463,6.25,73926.0,-17.77,-48.77,-49.05,0,*6A
1484784298.35,18464,6.25,73926.0,-17.77,-48.35,-48.55,0,*6F
1484784299.63,18465,6.25,73920.5,-17.75,-48.07,-48.27,0,*68
1484784300.91,18466,6.25,73924.8,-17.75,-48.07,-48.13,0,*6C
1484784302.14,18467,6.25,73924.8,-17.77,-48.21,-48.55,0,*69
1484784303.44,18468,6.25,73926.0,-17.75,-48.35,-48.69,0,*6E
1484784304.71,18469,6.25,73924.8,-17.75,-48.55,-48.91,0,*6E
1484784305.98,18470,6.25,73926.8,-17.75,-48.49,-48.77,0,*63
1484784307.28,18471,6.25,73926.5,-17.75,-48.77,-48.91,0,*67
1484784308.59,18472,6.25,73924.0,-17.75,-48.69,-48.91,0,*6B
1484784309.86,18473,6.25,73924.8,-17.75,-48.55,-48.91,0,*65
1484784311.14,18474,6.25,73926.0,-17.75,-48.55,-48.77,0,*6A
1484784312.41,18475,6.25,73924.8,-17.75,-48.55,-48.77,0,*6B
1484784313.63,18476,6.25,73924.5,-17.77,-48.83,-49.05,0,*65
1484784314.93,18477,6.25,73926.5,-17.75,-48.77,-48.91,0,*61
1484784316.24,18478,6.25,73926.0,-17.75,-48.69,-48.77,0,*69
1484784317.45,18479,6.25,73924.8,-17.77,-48.83,-48.97,0,*60
1484784318.69,18480,6.25,73926.5,-17.77,-48.77,-48.97,0,*6D
1484784319.99,18481,6.25,73920.3,-17.75,-48.69,-48.77,0,*6F
1484784321.24,18482,6.25,73922.5,-17.77,-48.63,-48.77,0,*64
1484784322.46,18483,6.25,73926.5,-17.77,-48.55,-48.83,0,*6B
1484784323.73,18484,6.25,73924.3,-17.77,-48.35,-48.35,0,*67
1484784324.97,18485,6.25,73926.8,-17.77,-48.55,-48.77,0,*66
1484784326.28,18486,6.25,73928.8,-17.75,-48.69,-48.91,0,*60
1484784327.5,18487,6.25,73926.8,-17.77,-48.55,-48.83,0,*6F
1484784328.74,18488,6.25,73926.3,-17.77,-48.55,-48.77,0,*6B
1484784329.98,18489,6.25,73922.0,-17.77,-48.77,-48.97,0,*64
1484784331.2,18490,6.25,73924.5,-17.77,-48.55,-48.83,0,*69
1484784332.42,18491,6.25,73924.0,-17.77,-48.63,-48.83,0,*6D
1484784333.63,18492,6.25,73924.8,-17.77,-48.83,-48.97,0,*65
1484784334.88,18493,6.25,73926.8,-17.77,-48.77,-48.83,0,*6A
1484784336.1,18494,6.25,73924.3,-17.77,-48.83,-48.83,0,*66
1484784337.36,18495,6.25,73924.3,-17.79,-48.77,-48.97,0,*67
1484784338.6,18496,6.25,73926.8,-17.79,-48.83,-48.97,0,*6F
1484784339.87,18497,6.25,73922.8,-17.79,-48.77,-49.05,0,*6F
1484784341.11,18498,6.25,73924.5,-17.83,-48.91,-49.05,0,*6D
1484784342.35,18499,6.25,73926.3,-17.79,-48.97,-49.05,0,*6F
1484784343.59,18500,6.25,73924.8,-17.83,-48.83,-48.91,0,*62
1484784344.84,18501,6.25,73926.8,-17.79,-48.41,-48.63,0,*65
1484784346.05,18502,6.25,73924.8,-17.83,-48.49,-48.83,0,*65
1484784347.3,18503,6.25,73926.3,-17.79,-48.63,-48.83,0,*69
1484784348.54,18504,6.25,73926.5,-17.79,-48.55,-48.83,0,*6B
1484784349.79,18505,6.25,73922.0,-17.83,-49.05,-49.11,0,*61
1484784351.06,18506,6.25,73926.0,-17.79,-48.97,-49.11,0,*6D
1484784352.27,18507,6.25,73924.3,-17.83,-48.83,-49.05,0,*69
1484784353.52,18508,6.25,73922.3,-17.83,-48.91,-49.33,0,*60
1484784354.73,18509,6.25,73924.5,-17.83,-48.83,-49.05,0,*67
1484784356.0,18510,6.25,73922.0,-17.79,-48.77,-48.97,0,*6B
1484784357.28,18511,6.25,73924.3,-17.85,-49.11,-49.19,0,*6F
1484784358.54,18512,6.25,73924.0,-17.85,-49.19,-49.25,0,*6B
1484784359.81,18513,6.25,73926.0,-17.85,-49.11,-49.25,0,*62
1484784361.09,18514,6.25,73926.0,-17.85,-49.11,-49.19,0,*6A
1484784362.38,18515,6.25,73928.8,-17.85,-49.11,-49.11,0,*63
1484784363.67,18516,6.25,73924.0,-17.85,-48.91,-49.11,0,*69
1484784364.96,18517,6.25,73922.5,-17.85,-48.77,-48.91,0,*69
1484784366.22,18518,6.25,73924.3,-17.85,-48.77,-48.97,0,*60
1484784367.5,18519,6.25,73922.3,-17.85,-48.91,-49.11,0,*66
1484784368.77,18520,6.25,73920.5,-17.85,-48.97,-49.11,0,*6A
1484784370.06,18521,6.25,73924.0,-17.85,-48.91,-49.11,0,*6D
1484784371.32,18522,6.25,73924.0,-17.85,-48.69,-48.97,0,*66
1484784372.55,18523,6.25,73922.5,-17.85,-48.97,-48.97,0,*66
1484784373.77,18524,6.25,73924.5,-17.85,-48.97,-48.97,0,*61
1484784375.03,18525,6.25,73922.3,-17.85,-48.77,-48.97,0,*6E
1484784376.29,18526,6.25,73924.0,-17.85,-48.49,-48.77,0,*6E
1484784377.56,18527,6.25,73924.8,-17.85,-48.97,-49.11,0,*6D
1484784378.84,18528,6.25,73924.0,-17.85,-48.91,-49.11,0,*64
1484784380.11,18529,6.25,73924.8,-17.85,-48.97,-49.11,0,*63
1484784381.37,18530,6.25,73926.5,-17.87,-48.91,-49.19,0,*67
1484784382.6,18531,6.25,73920.5,-17.87,-48.97,-49.19,0,*60
1484784383.87,18532,6.25,73926.0,-17.87,-48.91,-49.11,0,*6D
1484784385.16,18533,6.25,73922.5,-17.85,-48.77,-48.91,0,*6F
1484784386.39,18534,6.25,73922.0,-17.85,-48.97,-48.97,0,*60
1484784387.63,18535,6.25,73922.0,-17.87,-48.97,-49.11,0,*6C
1484784388.87,18536,6.25,73924.0,-17.89,-49.05,-49.25,0,*6C
1484784390.11,18537,6.25,73926.5,-17.87,-48.97,-49.11,0,*6E
1484784391.37,18538,6.25,73926.0,-17.87,-49.11,-49.19,0,*66
1484784392.64,18539,6.25,73926.5,-17.87,-48.91,-49.11,0,*66
1484784393.9,18540,6.25,73922.8,-17.89,-48.77,-48.97,0,*61
1484784395.17,18541,6.25,73922.0,-17.89,-48.77,-48.83,0,*65
1484784396.41,18542,6.25,73926.8,-17.89,-48.63,-49.05,0,*6C
1484784397.67,18543,6.25,73924.0,-17.89,-49.05,-49.19,0,*61
1484784398.93,18544,6.25,73922.8,-17.89,-48.97,-49.19,0,*6C
1484784400.19,18545,6.25,73926.8,-17.89,-48.97,-49.19,0,*6D
1484784401.45,18546,6.25,73926.0,-17.89,-48.97,-49.19,0,*6E
1484784402.71,18547,6.25,73928.0,-17.89,-48.97,-49.19,0,*6F
1484784403.97,18548,6.25,73926.8,-17.89,-48.77,-48.97,0,*69
1484784405.24,18549,6.25,73920.8,-17.89,-48.77,-49.05,0,*62
1484784406.51,18550,6.25,73926.8,-17.93,-48.77,-49.05,0,*61
1484784407.77,18551,6.25,73922.5,-17.89,-48.97,-49.19,0,*68
1484784409.0,18552,6.25,73922.0,-17.93,-48.63,-48.97,0,*6C
1484784410.23,18553,6.25,73926.0,-17.93,-48.63,-48.97,0,*6D
1484784411.47,18554,6.25,73924.3,-17.93,-48.55,-48.83,0,*6A
1484784412.72,18555,6.25,73920.3,-17.93,-48.55,-48.63,0,*65
1484784413.95,18556,6.25,73924.8,-17.93,-48.83,-49.05,0,*6C
1484784415.21,18557,6.25,73924.0,-17.93,-48.97,-49.19,0,*65
1484784416.47,18558,6.25,73924.0,-17.93,-48.83,-49.19,0,*6F
1484784417.71,18559,6.25,73922.3,-17.93,-48.83,-49.05,0,*63
1484784418.95,18560,6.25,73926.0,-17.93,-49.05,-49.05,0,*66
1484784420.19,18561,6.25,73922.8,-17.93,-48.63,-48.97,0,*6C
1484784421.4,18562,6.25,73924.8,-17.95,-49.05,-49.25,0,*60
1484784422.66,18563,6.25,73922.3,-17.93,-49.05,-49.19,0,*68
1484784423.9,18564,6.25,73926.5,-17.95,-48.63,-48.91,0,*69
1484784425.14,18565,6.25,73924.5,-17.95,-48.55,-48.77,0,*65
1484784426.39,18566,6.25,73922.5,-17.95,-48.91,-49.33,0,*6F
1484784427.63,18567,6.25,73922.5,-17.95,-48.91,-49.25,0,*69
1484784428.87,18568,6.25,73924.8,-17.95,-48.63,-48.91,0,*65
1484784430.11,18569,6.25,73924.5,-17.97,-48.63,-48.83,0,*65
1484784431.41,18570,6.25,73920.3,-17.97,-48.91,-49.11,0,*6A
1484784432.65,18571,6.25,73922.5,-17.97,-49.05,-49.25,0,*60
1484784433.92,18572,6.25,73924.3,-17.95,-48.91,-49.11,0,*6A
1484784435.13,18573,6.25,73924.8,-17.95,-49.05,-49.25,0,*60
1484784436.35,18574,6.25,73926.5,-17.95,-49.05,-49.25,0,*67
1484784437.62,18575,6.25,73922.5,-17.95,-48.91,-49.11,0,*6D
1484784438.86,18576,6.25,73926.0,-17.97,-48.83,-49.05,0,*6A
1484784440.12,18577,6.25,73926.8,-17.97,-48.83,-49.11,0,*6E
1484784441.39,18578,6.25,73922.3,-17.97,-48.91,-49.05,0,*67
1484784442.69,18579,6.25,73926.8,-17.97,-48.91,-49.11,0,*63
1484784443.96,18580,6.25,73926.0,-17.99,-49.11,-49.19,0,*6A
1484784445.26,18581,6.25,73924.0,-17.97,-48.69,-49.11,0,*63
1484784446.49,18582,6.25,73926.5,-17.99,-48.97,-49.19,0,*67
1484784447.74,18583,6.25,73924.5,-17.99,-49.11,-49.33,0,*61
1484784448.98,18584,6.25,73926.0,-17.99,-48.97,-49.19,0,*61
1484784450.21,18585,6.25,73926.5,-17.99,-48.97,-49.19,0,*60
1484784451.46,18586,6.25,73922.8,-17.97,-49.05,-49.25,0,*68
1484784452.69,18587,6.25,73926.0,-17.99,-48.77,-48.97,0,*6B
1484784453.91,18588,6.25,73922.5,-17.99,-48.55,-48.97,0,*64
1484784455.14,18589,6.25,73926.3,-17.99,-48.97,-49.19,0,*6C
1484784456.4,18590,6.25,73924.0,-17.99,-48.91,-49.19,0,*62
1484784457.64,18591,6.25,73924.8,-17.99,-48.97,-49.19,0,*65
1484784458.9,18592,6.25,73926.5,-18.01,-48.97,-49.19,0,*68
1484784460.17,18593,6.25,73920.8,-17.99,-49.11,-49.19,0,*68
1484784461.43,18594,6.25,73922.5,-17.99,-48.77,-48.91,0,*6F
1484784462.67,18595,6.25,73920.8,-17.97,-48.41,-48.49,0,*60
1484784463.91,18596,6.25,73926.8,-17.99,-48.55,-48.77,0,*65
1484784465.16,18597,6.25,73922.5,-17.99,-48.69,-48.97,0,*65
1484784466.45,18598,6.25,73924.3,-17.97,-48.69,-48.91,0,*62
1484784467.72,18599,6.25,73922.0,-17.99,-48.91,-49.11,0,*63
1484784469.01,18600,6.25,73922.8,-18.01,-48.91,-49.19,0,*66
1484784470.29,18601,6.25,73922.5,-18.01,-48.91,-49.19,0,*67
1484784471.59,18602,6.25,73920.3,-18.01,-48.77,-49.11,0,*64
1484784472.85,18603,6.25,73920.8,-18.01,-48.97,-49.19,0,*63
1484784474.09,18604,6.25,73922.0,-18.05,-49.05,-49.25,0,*65
1484784475.33,18605,6.25,73924.0,-18.05,-49.25,-49.25,0,*66
1484784476.61,18606,6.25,73922.8,-18.05,-48.97,-49.11,0,*6A
1484784477.87,18607,6.25,73920.8,-18.05,-48.83,-49.19,0,*66
1484784479.12,18608,6.25,73926.5,-18.05,-49.05,-49.25,0,*69
1484784480.36,18609,6.25,73924.5,-18.05,-49.25,-49.25,0,*6A
1484784481.66,18610,6.25,73922.0,-18.05,-49.19,-49.39,0,*60
1484784482.93,18611,6.25,73922.5,-18.05,-49.25,-49.47,0,*67
1484784484.2,18612,6.25,73922.3,-18.05,-49.25,-49.39,0,*6D
1484784485.44,18613,6.25,73922.5,-18.05,-49.05,-49.25,0,*63
1484784486.71,18614,6.25,73922.8,-18.05,-48.97,-49.19,0,*61
1484784487.95,18615,6.25,73922.5,-18.07,-48.77,-48.97,0,*6B
1484784489.18,18616,6.25,73920.3,-18.07,-48.83,-49.05,0,*69
1484784490.39,18617,6.25,73924.5,-18.07,-48.83,-48.97,0,*62
1484784491.64,18618,6.25,73924.0,-18.07,-48.77,-49.05,0,*6C
1484784492.89,18619,6.25,73922.3,-18.07,-48.55,-48.77,0,*69
1484784494.17,18620,6.25,73920.3,-18.05,-48.55,-48.77,0,*61
1484784495.44,18621,6.25,73920.3,-18.05,-48.77,-49.05,0,*64
1484784496.68,18622,6.25,73924.3,-18.05,-48.83,-49.25,0,*6E
1484784497.92,18623,6.25,73922.5,-18.07,-48.83,-49.19,0,*62
1484784499.16,18624,6.25,73922.8,-18.07,-48.83,-49.19,0,*65
1484784500.41,18625,6.25,73922.8,-18.07,-49.05,-49.19,0,*6B
1484784501.63,18626,6.25,73924.5,-18.07,-48.97,-49.25,0,*6D
1484784502.85,18627,6.25,73922.8,-18.07,-49.05,-49.25,0,*66